EN

Hourly Weather Monaco

Today, 12 June, Saturday

Time Temperature Precipitation Wind Pressure Humidity
00:00 +21°C° 0 mm 2 mps 754 mmHg 75%
01:00 +21°C° 0 mm 2 mps 754 mmHg 74%
02:00 +20°C° 0 mm 2 mps 754 mmHg 73%
03:00 +20°C° 0 mm 2 mps 754 mmHg 72%
04:00 +23°C° 0 mm 1 mps 754 mmHg 69%
05:00 +24°C° 0 mm 1 mps 754 mmHg 65%
06:00 +25°C° 0 mm 1 mps 755 mmHg 61%
07:00 +27°C° 0 mm 1 mps 755 mmHg 58%
08:00 +28°C° 0 mm 1 mps 755 mmHg 54%
09:00 +29°C° 0 mm 1 mps 755 mmHg 50%
10:00 +30°C° 0 mm 2 mps 755 mmHg 50%
11:00 +30°C° 0 mm 2 mps 755 mmHg 49%
12:00 +31°C° 0 mm 2 mps 755 mmHg 49%
13:00 +30°C° 0 mm 2 mps 754 mmHg 51%
14:00 +30°C° 0 mm 3 mps 754 mmHg 53%
15:00 +30°C° 0 mm 3 mps 754 mmHg 55%
16:00 +29°C° 0 mm 3 mps 754 mmHg 59%
17:00 +28°C° 0 mm 3 mps 754 mmHg 64%
18:00 +27°C° 0 mm 2 mps 754 mmHg 68%
19:00 +27°C° 0 mm 2 mps 754 mmHg 70%
20:00 +26°C° 0 mm 2 mps 754 mmHg 72%
21:00 +25°C° 0 mm 2 mps 754 mmHg 74%
22:00 +25°C° 0 mm 2 mps 754 mmHg 73%
23:00 +25°C° 0 mm 2 mps 754 mmHg 72%

Tomorrow, 13 June, Sunday

Time Temperature Precipitation Wind Pressure Humidity
00:00 +25°C° 0 mm 2 mps 754 mmHg 71%
01:00 +24°C° 0 mm 2 mps 754 mmHg 71%
02:00 +24°C° 0 mm 2 mps 754 mmHg 71%
03:00 +24°C° 0 mm 2 mps 754 mmHg 72%
04:00 +25°C° 0 mm 2 mps 754 mmHg 69%
05:00 +26°C° 0 mm 2 mps 754 mmHg 67%
06:00 +27°C° 0 mm 2 mps 754 mmHg 64%
07:00 +28°C° 0 mm 2 mps 754 mmHg 62%
08:00 +29°C° 0 mm 3 mps 754 mmHg 60%
09:00 +30°C° 0 mm 3 mps 754 mmHg 58%
10:00 +31°C° 0 mm 3 mps 754 mmHg 57%
11:00 +31°C° 0 mm 3 mps 754 mmHg 55%
12:00 +33°C° 0 mm 3 mps 754 mmHg 54%
13:00 +33°C° 0 mm 3 mps 754 mmHg 55%
14:00 +31°C° 0 mm 3 mps 754 mmHg 57%
15:00 +31°C° 0 mm 3 mps 753 mmHg 58%
16:00 +30°C° 0 mm 3 mps 753 mmHg 63%
17:00 +29°C° 0 mm 2 mps 754 mmHg 69%
18:00 +28°C° 0 mm 2 mps 754 mmHg 74%
19:00 +27°C° 0 mm 2 mps 754 mmHg 77%
20:00 +26°C° 0 mm 2 mps 754 mmHg 80%
21:00 +25°C° 0 mm 2 mps 754 mmHg 84%
22:00 +25°C° 0 mm 2 mps 754 mmHg 83%
23:00 +25°C° 0 mm 3 mps 754 mmHg 83%

Day after tomorrow, 14 June, Monday

Time Temperature Precipitation Wind Pressure Humidity
00:00 +24°C° 0 mm 3 mps 754 mmHg 83%
01:00 +24°C° 0 mm 3 mps 754 mmHg 84%
02:00 +24°C° 0 mm 3 mps 754 mmHg 85%
03:00 +24°C° 0 mm 3 mps 754 mmHg 85%
04:00 +25°C° 0 mm 3 mps 754 mmHg 81%
05:00 +26°C° 0 mm 2 mps 754 mmHg 76%
06:00 +27°C° 0 mm 2 mps 755 mmHg 72%
07:00 +28°C° 0 mm 2 mps 754 mmHg 70%
08:00 +29°C° 0 mm 3 mps 754 mmHg 67%
09:00 +30°C° 0 mm 3 mps 754 mmHg 65%
10:00 +30°C° 0.1 mm 2 mps 754 mmHg 64%
11:00 +30°C° 0.1 mm 2 mps 754 mmHg 63%
12:00 +30°C° 0.1 mm 2 mps 754 mmHg 63%
13:00 +30°C° 0.1 mm 2 mps 754 mmHg 61%
14:00 +30°C° 0.1 mm 2 mps 754 mmHg 59%
15:00 +30°C° 0.1 mm 2 mps 753 mmHg 57%
16:00 +30°C° 0 mm 2 mps 753 mmHg 60%
17:00 +29°C° 0 mm 2 mps 753 mmHg 63%
18:00 +28°C° 0 mm 2 mps 753 mmHg 66%
19:00 +28°C° 0 mm 2 mps 753 mmHg 69%
20:00 +27°C° 0 mm 2 mps 753 mmHg 71%
21:00 +26°C° 0 mm 1 mps 753 mmHg 74%
22:00 +25°C° 0 mm 1 mps 753 mmHg 75%
23:00 +25°C° 0 mm 1 mps 753 mmHg 77%

15 June, Tuesday

Time Temperature Precipitation Wind Pressure Humidity
00:00 +25°C° 0 mm 1 mps 753 mmHg 78%
01:00 +24°C° 0.1 mm 1 mps 753 mmHg 79%
02:00 +24°C° 0.1 mm 1 mps 753 mmHg 80%
03:00 +24°C° 0.1 mm 2 mps 753 mmHg 81%
04:00 +25°C° 0.1 mm 1 mps 753 mmHg 78%
05:00 +26°C° 0.1 mm 1 mps 753 mmHg 75%
06:00 +27°C° 0.1 mm 1 mps 753 mmHg 72%
07:00 +28°C° 0.6 mm 1 mps 753 mmHg 72%
08:00 +28°C° 0.6 mm 1 mps 753 mmHg 71%
09:00 +29°C° 0.6 mm 2 mps 753 mmHg 70%
10:00 +28°C° 1.4 mm 2 mps 754 mmHg 74%
11:00 +28°C° 1.4 mm 2 mps 754 mmHg 77%
12:00 +27°C° 1.4 mm 1 mps 754 mmHg 81%
13:00 +28°C° 0.8 mm 1 mps 754 mmHg 80%
14:00 +28°C° 0.8 mm 1 mps 754 mmHg 78%
15:00 +28°C° 0.8 mm 1 mps 754 mmHg 77%
16:00 +28°C° 0.2 mm 1 mps 754 mmHg 79%
17:00 +27°C° 0.2 mm 1 mps 753 mmHg 81%
18:00 +27°C° 0.2 mm 1 mps 753 mmHg 83%
19:00 +26°C° 0.1 mm 1 mps 753 mmHg 84%
20:00 +25°C° 0.1 mm 1 mps 754 mmHg 85%
21:00 +25°C° 0.1 mm 1 mps 754 mmHg 87%
22:00 +24°C° 0 mm 1 mps 754 mmHg 86%
23:00 +24°C° 0 mm 2 mps 754 mmHg 85%

16 June, Wednesday

Time Temperature Precipitation Wind Pressure Humidity
00:00 +24°C° 0 mm 2 mps 754 mmHg 85%
01:00 +24°C° 0 mm 2 mps 754 mmHg 84%
02:00 +23°C° 0 mm 2 mps 753 mmHg 84%
03:00 +23°C° 0 mm 2 mps 753 mmHg 84%
04:00 +24°C° 0 mm 2 mps 753 mmHg 81%
05:00 +25°C° 0 mm 2 mps 753 mmHg 78%
06:00 +27°C° 0 mm 2 mps 754 mmHg 74%
07:00 +27°C° 0.1 mm 2 mps 754 mmHg 71%
08:00 +28°C° 0.1 mm 3 mps 754 mmHg 69%
09:00 +29°C° 0.1 mm 3 mps 754 mmHg 66%
10:00 +29°C° 0.2 mm 3 mps 754 mmHg 65%
11:00 +30°C° 0.2 mm 3 mps 753 mmHg 65%
12:00 +30°C° 0.2 mm 3 mps 753 mmHg 64%
13:00 +30°C° 0.2 mm 3 mps 753 mmHg 65%
14:00 +30°C° 0.2 mm 3 mps 753 mmHg 67%
15:00 +30°C° 0.2 mm 3 mps 753 mmHg 68%
16:00 +29°C° 0.3 mm 3 mps 753 mmHg 72%
17:00 +28°C° 0.3 mm 3 mps 753 mmHg 75%
18:00 +27°C° 0.3 mm 3 mps 753 mmHg 79%
19:00 +26°C° 0 mm 3 mps 753 mmHg 81%
20:00 +25°C° 0 mm 3 mps 753 mmHg 83%
21:00 +24°C° 0 mm 3 mps 753 mmHg 85%
22:00 +24°C° 0 mm 3 mps 753 mmHg 84%
23:00 +24°C° 0 mm 3 mps 753 mmHg 84%

17 June, Thursday

Time Temperature Precipitation Wind Pressure Humidity
00:00 +23°C° 0 mm 4 mps 753 mmHg 84%
01:00 +23°C° 0 mm 4 mps 753 mmHg 84%
02:00 +22°C° 0 mm 4 mps 753 mmHg 83%
03:00 +22°C° 0 mm 4 mps 753 mmHg 83%
04:00 +23°C° 0 mm 4 mps 754 mmHg 80%
05:00 +25°C° 0 mm 3 mps 754 mmHg 78%
06:00 +26°C° 0 mm 3 mps 754 mmHg 75%
07:00 +27°C° 0 mm 4 mps 754 mmHg 68%
08:00 +29°C° 0 mm 5 mps 754 mmHg 62%
09:00 +30°C° 0 mm 6 mps 754 mmHg 55%
10:00 +30°C° 0 mm 6 mps 754 mmHg 54%
11:00 +30°C° 0 mm 6 mps 754 mmHg 54%
12:00 +32°C° 0 mm 6 mps 754 mmHg 54%
13:00 +30°C° 0 mm 6 mps 754 mmHg 55%
14:00 +30°C° 0 mm 5 mps 754 mmHg 56%
15:00 +30°C° 0 mm 5 mps 754 mmHg 57%
16:00 +29°C° 0 mm 4 mps 754 mmHg 62%
17:00 +28°C° 0 mm 4 mps 754 mmHg 67%
18:00 +27°C° 0 mm 4 mps 754 mmHg 71%
19:00 +26°C° 0 mm 4 mps 754 mmHg 72%
20:00 +25°C° 0 mm 4 mps 754 mmHg 73%
21:00 +23°C° 0 mm 4 mps 754 mmHg 73%
22:00 +23°C° 0 mm 4 mps 754 mmHg 70%
23:00 +23°C° 0 mm 4 mps 754 mmHg 67%
Show more